Location: Newark
(21.8258°S, 114.1586°E)
Time: 02:00:48
(UTC+00:00)

Hubble Space Telescope - Pass Details

Date: 15 December 2019
Orbit: 536 x 540 km, 28.5° (Epoch: 23 January)

Event Time Altitude Azimuth Distance (km) Brightness Sun altitude
Rises 13:59:43 0° 249° (WSW) 2,686 5.1 -33.7°
Reaches altitude 10° 14:02:00 10° 247° (WSW) 1,793 4.1 -34.0°
Enters shadow 14:02:35 14° 246° (WSW) 1,566 3.7 -34.1°
